Location: Santa Barbara
(34.4500°N, 119.7700°W)
Time: 04:45:22
(UTC-07:00)

Cosmos 1892 Rocket - Visible Passes

Search period start: 28 May 2016 00:00
Search period end: 07 June 2016 00:00
Orbit: 607 x 633 km, 82.5° (Epoch: 28 May)

Date Brightness Start Highest point End Pass type
(mag) Time Alt. Az. Time Alt. Az. Time Alt. Az.
28 May 6.7 21:50:07 10° W 21:52:03 13° WNW 21:54:00 10° NW visible
29 May 3.7 20:27:09 10° S 20:31:34 87° W 20:36:04 10° N visible
30 May 5.0 20:45:06 10° SSW 20:49:19 42° W 20:53:35 10° N visible
31 May 6.3 21:03:42 10° SW 21:07:10 22° WNW 21:10:40 10° NNW visible
01 Jun 6.9 21:23:38 10° W 21:25:07 11° WNW 21:26:35 10° NW visible
04 Jun 6.5 20:36:55 10° SW 20:40:13 20° WNW 20:43:33 10° NNW visible
05 Jun 7.3 20:57:30 10° W 20:58:11 10° WNW 20:58:52 10° WNW visible
